sat.trackr.live / text

‹ back to catalog

STARLINK-4033

NORAD 52702 · 2022-053AY

PAYLOAD ACTIVE UNKNOWN

§ Identity

Operator
Country
US
Launch date
2022-05-18
Launch site
AFETR
Launch vehicle
Mass (kg)
RCS (m²)

Purposes: comms

External: N2YO · Heavens-Above · Gunter

§ Orbital elements

Epoch: 2026-05-25T00:34:48.673344Z

Period
95.44 min
Inclination
53.2121°
Eccentricity
0.0001060
Mean motion
15.08849854 rev/d
Perigee alt
539.0 km
Apogee alt
540.4 km
Semi-major
6,917.9 km
B*
-1.1712e-4
RAAN
166.4710°
Arg perigee
109.2999°
Mean anomaly
250.8108°
Rev number
22,261

§ Raw data

STARLINK-40331 52702U 22053AY  26145.02417446 -.00002152  00000+0 -11712-3 0  99902 52702  53.2121 166.4710 0001060 109.2999 250.8108 15.08849854222612

JSON: /api/v1/satellites/52702 · /tle

For live sub-satellite position, see the globe view (requires WebGL).

§ Visibility from observer

Set your observer location to see the next 7 days of passes ≥ 10°. The values pass through the URL so the page stays shareable.

No JS? Fill the form by hand. The geolocation button needs JavaScript.